sat.trackr.live / text

‹ back to catalog

STARLINK-34415

NORAD 64618 · 2025-137AA

PAYLOAD ACTIVE UNKNOWN

§ Identity

Operator
Country
US
Launch date
2025-06-25
Launch site
AFETR
Launch vehicle
Mass (kg)
RCS (m²)

Purposes: comms

External: N2YO · Heavens-Above · Gunter

§ Orbital elements

Epoch: 2026-09-20T01:31:13.066752Z

Period
93.85 min
Inclination
53.1566°
Eccentricity
0.0001140
Mean motion
15.34411622 rev/d
Perigee alt
461.9 km
Apogee alt
463.4 km
Semi-major
6,840.8 km
B*
7.5153e-4
RAAN
149.6015°
Arg perigee
90.1288°
Mean anomaly
269.9845°
Rev number
7,053

§ Raw data

STARLINK-344151 64618U 25137AA  26263.06334568  .00025110  00000+0  75153-3 0  99992 64618  53.1566 149.6015 0001140  90.1288 269.9845 15.34411622 70530

JSON: /api/v1/satellites/64618 · /tle

For live sub-satellite position, see the globe view (requires WebGL).

§ Visibility from observer

Set your observer location to see the next 7 days of passes ≥ 10°. The values pass through the URL so the page stays shareable.

No JS? Fill the form by hand. The geolocation button needs JavaScript.